EW4324 Weather Reports


time (UTC)temp
F
wind
direction
speed
knots
gust
knots
rain 1hr
in
rain 24hr
in
rain mn
in
humidity
%
barometer
mb
20260502213603 51 225 0.9 2.6 0.01 0.02 0.01 85 1010.0
20260502212703 51 225 0.9 2.6 0.01 0.02 0.01 88 1009.9
20260502212014 50 225 0.9 3.5 0.01 0.02 0.01 90 1010.0
20260502210903 50 223 0.9 2.6 0.00 0.01 0.00 92 1009.9
20260502210004 49 223 0.9 2.6 0.00 0.01 0.00 92 1010.0
20260502205403 48 221 0.0 2.6 0.00 0.01 0.00 92 1010.1
20260502204503 48 221 0.0 2.6 0.00 0.01 0.00 92 1010.2
20260502203603 48 221 0.9 3.5 0.00 0.01 0.00 90 1010.3
20260502202703 48 230 1.7 6.1 0.00 0.01 0.00 89 1010.4
20260502201803 48 205 1.7 5.2 0.00 0.01 0.00 87 1010.5
20260502200903 49 225 1.7 4.3 0.00 0.01 0.00 86 1010.6
20260502200003 49 276 0.9 2.6 0.00 0.01 0.00 85 1010.4
20260502195403 49 275 0.9 2.6 0.00 0.01 0.00 86 1010.3
20260502194506 49 275 0.0 1.7 0.00 0.01 0.00 87 1010.3
20260502193603 49 275 0.0 2.6 0.00 0.01 0.00 87 1010.3
20260502192703 48 275 0.9 3.5 0.00 0.01 0.00 89 1010.4
20260502192013 48 276 0.9 3.5 0.00 0.01 0.00 89 1010.4
20260502190903 48 262 0.9 4.3 0.00 0.01 0.00 88 1010.7
20260502190004 48 255 1.7 5.2 0.00 0.01 0.00 87 1010.6
20260502185403 49 260 1.7 7.8 0.00 0.01 0.00 86 1010.7
20260502184509 49 260 3.5 8.7 0.00 0.01 0.00 84 1010.6
20260502183603 51 222 2.6 8.7 0.00 0.01 0.00 79 1010.5
20260502182703 52 148 1.7 6.1 0.00 0.01 0.00 75 1010.5
20260502181803 53 173 2.6 6.1 0.00 0.01 0.00 71 1010.5
20260502180903 54 163 2.6 6.1 0.00 0.01 0.00 70 1010.5
20260502163603 50 126 0.9 3.5 0.00 0.01 0.00 87 1011.2
20260502162703 50 123 0.9 2.6 0.00 0.01 0.00 87 1011.3
20260502161803 50 124 0.9 2.6 0.00 0.01 0.00 88 1011.4
20260502160903 49 124 0.9 6.1 0.00 0.01 0.00 88 1011.4
20260502151803 49 137 0.0 3.5 0.00 0.01 0.00 88 1011.8
20260502151113 49 138 0.9 2.6 0.00 0.01 0.00 88 1011.7
20260502130213 46 0 0.0 0.0 0.00 0.02 0.00 95 1012.3
20260502123603 45 31 0.0 1.7 0.00 0.02 0.00 95 1012.5
20260502122703 45 31 0.0 2.6 0.00 0.02 0.00 95 1012.6
20260502121803 44 33 0.9 3.5 0.00 0.02 0.00 95 1012.6
20260502120903 44 36 0.0 1.7 0.00 0.02 0.00 94 1012.6
20260502115408 44 0 0.0 0.0 0.00 0.02 0.00 94 1012.5
20260502114714 44 36 0.0 0.9 0.00 0.02 0.00 94 1012.4
20260502113603 44 36 0.0 1.7 0.00 0.02 0.00 94 1012.2
20260502112913 44 36 0.0 1.7 0.00 0.02 0.00 94 1012.1
20260502111803 44 36 0.0 1.7 0.00 0.02 0.00 93 1012.7
20260502110904 44 36 0.0 1.7 0.00 0.02 0.00 93 1012.8
20260502110213 44 36 0.0 1.7 0.00 0.02 0.00 92 1012.7
20260502105403 44 36 0.0 0.9 0.00 0.02 0.00 92 1012.1
20260502104503 44 36 0.0 1.7 0.00 0.02 0.00 92 1011.8
20260502103603 44 43 0.0 2.6 0.00 0.02 0.00 91 1011.6
20260502102703 44 0 0.0 0.0 0.00 0.02 0.00 91 1011.5
20260502101803 44 0 0.0 0.0 0.00 0.02 0.00 90 1011.3
20260502100903 44 0 0.0 0.0 0.00 0.02 0.00 90 1011.5
20260502090903 44 0 0.0 0.0 0.00 0.02 0.00 88 1011.5
20260502090214 44 92 0.0 0.9 0.00 0.02 0.00 88 1011.2
20260502070903 46 326 0.0 2.6 0.00 0.02 0.00 71 1011.1
20260502070213 47 0 0.0 0.0 0.00 0.02 0.00 72 1011.4
20260502065403 46 325 0.0 0.9 0.00 0.02 0.00 69 1011.4
20260502064503 46 0 0.0 0.0 0.00 0.02 0.00 71 1011.4
20260502063607 46 325 0.0 0.9 0.00 0.02 0.00 71 1011.6
20260502062703 46 324 0.9 7.0 0.00 0.02 0.00 71 1011.6
20260502060903 45 251 0.0 2.6 0.00 0.02 0.00 74 1011.8
20260502060003 44 251 0.9 2.6 0.00 0.02 0.00 75 1011.9
20260502055403 44 251 0.0 2.6 0.00 0.02 0.00 75 1011.7
20260502054503 44 0 0.0 0.0 0.00 0.02 0.00 74 1011.3
20260502053813 45 251 0.0 0.9 0.00 0.02 0.00 72 1011.3
20260502052703 45 251 0.0 1.7 0.00 0.02 0.00 70 1011.6
20260502051803 46 251 0.0 1.7 0.00 0.02 0.00 70 1011.7
20260502050903 46 0 0.0 0.0 0.00 0.02 0.00 64 1011.6
20260502050212 46 0 0.0 0.0 0.00 0.02 0.00 61 1011.6
20260502045403 47 0 0.0 0.0 0.00 0.02 0.00 61 1011.6
20260502044713 47 0 0.0 0.0 0.00 0.02 0.00 61 1011.7
20260502043603 47 0 0.0 0.0 0.00 0.02 0.00 61 1011.7
20260502042703 47 251 0.0 0.9 0.00 0.02 0.00 62 1011.7
20260502041803 47 0 0.0 0.0 0.00 0.02 0.00 63 1011.7
20260502040903 46 0 0.0 0.0 0.00 0.02 0.00 64 1011.9
20260502040003 46 251 0.0 0.9 0.00 0.02 0.00 64 1012.0
20260502035613 46 251 0.0 0.9 0.00 0.02 0.02 64 1012.0
20260502034503 45 0 0.0 0.0 0.00 0.02 0.02 66 1012.0
20260502033603 46 0 0.0 0.0 0.00 0.02 0.02 67 1011.9
20260502032703 46 0 0.0 0.0 0.00 0.02 0.02 63 1011.9
20260502031803 46 0 0.0 0.0 0.00 0.02 0.02 61 1011.8
20260502031112 46 0 0.0 0.0 0.00 0.02 0.02 62 1011.7
20260502030214 46 0 0.0 0.0 0.01 0.02 0.02 64 1011.7
20260502025613 46 0 0.0 0.0 0.01 0.02 0.02 66 1011.7
20260502024503 45 0 0.0 0.0 0.01 0.02 0.02 66 1011.7
20260502023603 46 0 0.0 0.0 0.01 0.02 0.02 65 1011.7
20260502022703 46 0 0.0 0.0 0.01 0.02 0.02 64 1011.7
20260502021803 46 0 0.0 0.0 0.01 0.02 0.02 60 1011.6
20260502020904 46 0 0.0 0.0 0.01 0.02 0.02 58 1011.6
20260502020213 47 0 0.0 0.0 0.00 0.01 0.01 58 1011.6
20260502015403 47 0 0.0 0.0 0.00 0.01 0.01 56 1011.6
20260502014712 48 0 0.0 0.0 0.00 0.01 0.01 57 1011.6
20260502013603 48 0 0.0 0.0 0.00 0.01 0.01 54 1011.6
20260502012703 49 0 0.0 0.0 0.00 0.01 0.01 53 1011.6
20260502011803 50 251 0.0 0.9 0.00 0.01 0.01 53 1011.4
20260502010903 50 0 0.0 0.0 0.00 0.01 0.01 51 1011.3
20260502010003 50 251 0.0 0.9 0.00 0.01 0.01 52 1011.3
20260502005403 51 251 0.0 1.7 0.00 0.02 0.01 51 1011.2
20260502004503 51 251 0.0 0.9 0.00 0.02 0.01 51 1011.1
20260502003610 51 251 0.0 0.9 0.00 0.02 0.01 49 1011.2
20260502002703 52 251 0.0 1.7 0.00 0.02 0.01 49 1011.0
20260502001803 52 251 0.0 1.7 0.00 0.02 0.01 49 1010.9
20260502000903 54 0 0.0 0.0 0.00 0.02 0.01 47 1010.7
20260502000003 55 0 0.0 0.0 0.00 0.02 0.01 44 1010.5
20260501235403 55 0 0.0 0.0 0.00 0.02 0.01 41 1010.4
20260501234503 56 251 0.0 0.9 0.00 0.02 0.01 42 1010.3
20260501233813 56 251 0.0 1.7 0.00 0.02 0.01 39 1010.3
20260501232912 57 251 0.0 1.7 0.00 0.02 0.01 40 1010.0
20260501231803 58 261 0.0 5.2 0.00 0.02 0.01 36 1009.9
20260501230903 58 242 0.9 3.5 0.00 0.02 0.01 37 1009.7
20260501230009 59 254 0.9 4.3 0.00 0.02 0.01 35 1009.6
20260501225403 59 296 1.7 7.8 0.00 0.02 0.01 35 1009.6
20260501224713 59 282 1.7 7.8 0.00 0.02 0.01 34 1009.7
20260501223603 60 245 2.6 5.2 0.00 0.02 0.01 35 1009.7
20260501222914 60 223 1.7 4.3 0.00 0.02 0.01 36 1009.6
20260501221805 60 225 1.7 7.0 0.00 0.02 0.01 34 1009.5
20260501220903 60 246 2.6 7.8 0.00 0.02 0.01 33 1009.4
20260501220003 60 241 2.6 12.2 0.00 0.02 0.01 35 1009.5
20260501215403 60 271 2.6 7.8 0.00 0.02 0.01 35 1009.4
20260501214713 61 300 2.6 7.8 0.00 0.02 0.01 33 1009.4